Le nostre stazioni meteo in Italia

Pubblicità
Il mio iltempo24.it
Guidonia, Italia (16234): Temperatura & dewpoint: 10.12.2017 17:00:00 - 16.12.2017 17:00:00 (CET)Guidonia, Italia (16234): velocità del vento: 10.12.2017 17:00:00 - 16.12.2017 17:00:00 (CET)Guidonia, Italia (16234): direzione del vento: 10.12.2017 17:00:00 - 16.12.2017 17:00:00 (CET)Guidonia, Italia (16234): reduced air pressure: 10.12.2017 17:00:00 - 16.12.2017 17:00:00 (CET)Guidonia, Italia (16234): visibility: 10.12.2017 17:00:00 - 16.12.2017 17:00:00 (CET)
Data & Tempo tt [°C] td [°C] ff [km/h] ff [kn] dd ppp [hPa] vv [km]
16.12.2017 17:00:00 - - - - - - -
16.12.2017 16:00:00 - - - - - - -
16.12.2017 15:00:00 - - - - - - -
16.12.2017 14:00:00 - - - - - - -
16.12.2017 13:00:00 - - - - - - -
16.12.2017 12:00:00 - - - - - - -
16.12.2017 11:00:00 - - - - - - -
16.12.2017 10:00:00 - - - - - - -
16.12.2017 09:00:00 - - - - - - -
16.12.2017 08:00:00 - - - - - - -
16.12.2017 07:00:00 - - - - - - -
16.12.2017 06:00:00 - - - - - - -
16.12.2017 05:00:00 - - - - - - -
16.12.2017 04:00:00 - - - - - - -
16.12.2017 03:00:00 - - - - - - -
16.12.2017 02:00:00 - - - - - - -
16.12.2017 01:00:00 - - - - - - -
16.12.2017 00:00:00 - - - - - - -
15.12.2017 23:00:00 - - - - - - -
15.12.2017 22:00:00 - - - - - - -
15.12.2017 21:00:00 - - - - - - -
15.12.2017 20:00:00 - - - - - - -
15.12.2017 19:00:00 13,8 12,5 15 8 SO 999,6 15
15.12.2017 18:00:00 14,0 13,0 21 11 SSO - 10
15.12.2017 17:00:00 13,0 13,0 26 14 SSO - 5
15.12.2017 16:00:00 13,8 13,0 22 12 SSO 1000,6 4,0
15.12.2017 15:00:00 14,0 13,0 22 12 SSO - 4,0
15.12.2017 14:00:00 13,0 12,0 9 5 SE - 1,6
15.12.2017 13:00:00 13,2 12,1 8 4 SE 1003,8 4,0
15.12.2017 12:00:00 13,0 12,0 11 6 SE - 8
15.12.2017 11:00:00 13,0 12,0 8 4 SE - 8
15.12.2017 10:00:00 12,8 11,9 9 5 SE 1007,7 8
15.12.2017 09:00:00 12,0 11,0 11 6 SSE - 8
15.12.2017 08:00:00 12,0 12,0 4 2 - - 8
15.12.2017 07:00:00 12,0 11,5 5 3 ENE 1009,1 10
15.12.2017 06:00:00 - - - - - - -
15.12.2017 05:00:00 - - - - - - -
15.12.2017 04:00:00 - - - - - - -
15.12.2017 03:00:00 - - - - - - -
15.12.2017 02:00:00 - - - - - - -
15.12.2017 01:00:00 - - - - - - -
15.12.2017 00:00:00 - - - - - - -
14.12.2017 23:00:00 - - - - - - -
14.12.2017 22:00:00 - - - - - - -
14.12.2017 21:00:00 - - - - - - -
14.12.2017 20:00:00 - - - - - - -
14.12.2017 19:00:00 12,0 9,9 5 3 SE 1014,5 15
14.12.2017 18:00:00 11,0 9,0 9 5 SSE - 10
14.12.2017 17:00:00 12,0 9,0 11 6 SSE - 10
14.12.2017 16:00:00 12,4 8,5 9 5 SSE 1014,6 15
14.12.2017 15:00:00 12,0 9,0 15 8 SSE - 10
14.12.2017 14:00:00 12,0 9,0 15 8 SSE - 10
14.12.2017 13:00:00 12,0 8,7 11 6 S 1016,2 15
14.12.2017 12:00:00 11,0 8,0 8 4 S - 10
14.12.2017 11:00:00 11,0 8,0 8 4 SE - 10
14.12.2017 10:00:00 11,2 7,9 11 6 SSE 1016,8 20
14.12.2017 09:00:00 11,0 8,0 13 7 SE - 10
14.12.2017 08:00:00 10,0 9,0 13 7 SE - 10
14.12.2017 07:00:00 9,8 9,0 9 5 SE 1017,3 15
14.12.2017 06:00:00 - - - - - - -
14.12.2017 05:00:00 - - - - - - -
14.12.2017 04:00:00 - - - - - - -
14.12.2017 03:00:00 - - - - - - -
14.12.2017 02:00:00 - - - - - - -
14.12.2017 01:00:00 - - - - - - -
14.12.2017 00:00:00 - - - - - - -
13.12.2017 23:00:00 - - - - - - -
13.12.2017 22:00:00 - - - - - - -
13.12.2017 21:00:00 - - - - - - -
13.12.2017 20:00:00 - - - - - - -
13.12.2017 19:00:00 8,6 7,4 4 2 NE 1019,3 25
13.12.2017 18:00:00 10,0 7,0 9 5 SSE - 10
13.12.2017 17:00:00 12,0 8,0 11 6 SSO - 10
13.12.2017 16:00:00 12,6 7,7 11 6 SSE 1018,6 25
13.12.2017 15:00:00 14,0 7,0 15 8 SSO - 10
13.12.2017 14:00:00 14,0 8,0 13 7 S - 10
13.12.2017 13:00:00 13,4 7,4 15 8 SSO 1019,1 20
13.12.2017 12:00:00 13,0 9,0 9 5 SSO - 10
13.12.2017 11:00:00 13,0 10,0 9 5 SE - 10
13.12.2017 10:00:00 11,2 10,9 4 2 ESE 1019,7 20
13.12.2017 09:00:00 11,0 11,0 4 2 E - 10
13.12.2017 08:00:00 11,0 11,0 5 3 ENE - 10
13.12.2017 07:00:00 10,8 10,7 8 4 E 1018,9 20
13.12.2017 06:00:00 - - - - - - -
13.12.2017 05:00:00 - - - - - - -
13.12.2017 04:00:00 - - - - - - -
13.12.2017 03:00:00 - - - - - - -
13.12.2017 02:00:00 - - - - - - -
13.12.2017 01:00:00 - - - - - - -
13.12.2017 00:00:00 - - - - - - -
12.12.2017 23:00:00 - - - - - - -
12.12.2017 22:00:00 - - - - - - -
12.12.2017 21:00:00 - - - - - - -
12.12.2017 20:00:00 - - - - - - -
12.12.2017 19:00:00 15,2 12,3 18 10 SE 1015,3 15
12.12.2017 18:00:00 25,0 23,0 15 8 SSE - 8
12.12.2017 17:00:00 15,0 12,0 15 8 SE - 8
12.12.2017 16:00:00 15,6 12,0 13 7 SSO 1014,1 8
12.12.2017 15:00:00 16,0 12,0 22 12 SSE - 8
12.12.2017 14:00:00 16,0 12,0 22 12 SSE - 8
12.12.2017 13:00:00 16,0 11,8 21 11 SSE 1014,0 8
12.12.2017 12:00:00 16,0 12,0 26 14 SSE - 6
12.12.2017 11:00:00 16,0 12,0 22 12 SSE - 6
12.12.2017 10:00:00 15,2 12,3 21 11 SSE 1013,7 6
12.12.2017 09:00:00 15,0 12,0 21 11 SSE - 6
12.12.2017 08:00:00 15,0 11,0 21 11 SSE - 8
12.12.2017 07:00:00 15,6 11,6 26 14 SSE 1012,0 10
12.12.2017 06:00:00 - - - - - - -
12.12.2017 05:00:00 - - - - - - -
12.12.2017 04:00:00 - - - - - - -
12.12.2017 03:00:00 - - - - - - -
12.12.2017 02:00:00 - - - - - - -
12.12.2017 01:00:00 - - - - - - -
12.12.2017 00:00:00 - - - - - - -
11.12.2017 23:00:00 - - - - - - -
11.12.2017 22:00:00 - - - - - - -
11.12.2017 21:00:00 - - - - - - -
11.12.2017 20:00:00 - - - - - - -
11.12.2017 19:00:00 15,0 11,2 34 18 SSE 1009,2 10
11.12.2017 18:00:00 15,0 11,0 35 19 SSE - 8
11.12.2017 17:00:00 15,0 12,0 31 17 SSE - 8
11.12.2017 16:00:00 15,0 11,6 31 17 SSE 1008,6 8
11.12.2017 15:00:00 15,0 11,0 34 18 SSE - 8
11.12.2017 14:00:00 15,0 11,0 35 19 SSE - 8
11.12.2017 13:00:00 15,2 10,6 35 19 SSE 1008,8 8
11.12.2017 12:00:00 15,0 11,0 31 17 SSE - 10
11.12.2017 11:00:00 15,0 11,0 35 19 S - 10
11.12.2017 10:00:00 14,8 11,0 31 17 SSE 1009,6 10
11.12.2017 09:00:00 15,0 10,0 21 11 SSE - 10
11.12.2017 08:00:00 14,0 10,0 24 13 SSE - 8
11.12.2017 07:00:00 13,8 10,4 18 10 SSE 1009,1 15
11.12.2017 06:00:00 - - - - - - -
11.12.2017 05:00:00 - - - - - - -
11.12.2017 04:00:00 - - - - - - -
11.12.2017 03:00:00 - - - - - - -
11.12.2017 02:00:00 - - - - - - -
11.12.2017 01:00:00 - - - - - - -
11.12.2017 00:00:00 - - - - - - -
10.12.2017 23:00:00 - - - - - - -
10.12.2017 22:00:00 - - - - - - -
10.12.2017 21:00:00 - - - - - - -
10.12.2017 20:00:00 - - - - - - -
10.12.2017 19:00:00 - - - - - - -
10.12.2017 18:00:00 - - - - - - -
10.12.2017 17:00:00 - - - - - - -

tt = Temperatura
td = dewpoint
ff = velocità del vento
dd = direzione del vento
ppp = reduced air pressure
vv = visibility

Stazioni seguenti

WeatherPro
AMSI
MeteoEarth